Location: Yucca Valley
(34.1140°N, 116.4310°W)
Time: 10:25:34
(UTC-07:00)

Daily predictions for brighter satellites

Satellite Brightness Start Highest point End
(mag) Time Altitude Azimuth Time Altitude Azimuth Time Altitude Azimuth
Cosmos 2184 Rocket 4.0 19:37:45 10° S 19:43:54 82° E 19:50:05 10° N
SJ-6B 3.5 19:41:49 10° SE 19:45:34 38° ENE 19:49:16 10° N
Cosmos 1300 3.6 19:47:39 10° SSW 19:51:24 55° W 19:55:10 10° N
NOSS 2-1 (E) 3.7 19:49:02 10° SW 19:52:37 63° WNW 19:56:26 10° NNE
Cosmos 1939 Rocket 4.3 19:49:49 10° ESE 19:52:40 20° ENE 19:55:31 10° NNE
deb Centaur AC-2 4.4 19:53:45 10° WSW 19:57:55 50° S 20:02:12 11° ESE
Cosmos 1437 4.3 19:57:27 10° SSW 20:00:28 40° W 20:03:30 10° N
Cosmos 2341 Rocket 4.4 19:58:10 10° SSE 20:04:04 42° E 20:09:59 10° NNE
NOSS 0 Rocket 4.2 19:58:26 10° S 20:04:12 44° ESE 20:10:02 10° NE
NOSS 3-3 (A) 3.9 20:00:30 10° SSW 20:06:25 89° SE 20:12:52 10° NNE
NOSS 3-3 (C) 3.9 20:00:37 10° SSW 20:06:31 88° ESE 20:12:58 10° NNE
GPS 2-05 Rocket1 4.4 20:04:12 10° W 20:07:01 25° SSW 20:09:49 10° SSE
Cosmos 494 Rocket 4.3 20:03:11 10° NNW 20:08:24 73° WSW 20:13:36 10° S
FREGAT/IRIS 3.9 20:05:36 10° S 20:08:24 41° W 20:11:13 10° NNW
Cosmos 1980 4.1 20:03:36 10° S 20:08:50 39° ESE 20:14:04 10° NE
Cosmos 1666 Rocket 3.8 20:06:35 10° N 20:10:56 51° E 20:15:15 10° SSE
USA 186 1.9 20:12:04 21° ESE 20:12:56 28° ENE 20:14:57 10° NNE
ERS-2 2.2 20:09:53 10° SSE 20:13:28 57° ENE 20:17:05 10° N
Cosmos 1455 2.4 20:11:14 10° SSE 20:14:54 47° E 20:18:37 10° NNE
CZ-2D R/B 3.2 20:11:23 10° SSE 20:15:10 88° WSW 20:19:00 10° NNW
Cosmos 1151 Rocket 3.9 20:12:50 10° SSE 20:16:26 28° E 20:20:04 10° NNE
Resurs 1-3 4.2 20:13:11 12° SE 20:16:52 38° ENE 20:20:56 10° N
Cosmos 2333 Rocket 2.2 20:14:03 10° SSW 20:19:43 85° ESE 20:25:23 10° NNE
USA 267 4.4 20:15:56 10° E 20:20:03 18° ESE 20:24:10 10° SSE
Sich 1 2.9 20:16:30 10° N 20:20:47 75° E 20:25:01 10° S
ATLAS 2A CENTAUR R/B 3.8 20:17:29 10° W 20:22:33 22° SSW 20:24:24 13° SSE
Meteor 1-27 4.2 20:17:38 10° S 20:23:19 64° E 20:28:56 10° NNE
COSMOS 2428 3.8 20:19:25 10° SW 20:24:57 49° WNW 20:30:30 10° N
Meteor 2-21 Rocket 4.4 20:18:53 10° S 20:24:59 80° E 20:31:10 10° N
YAOGAN 6 2.6 20:22:57 14° SSE 20:25:52 57° ENE 20:29:27 10° N
Cosmos 1892 2.6 20:22:38 10° N 20:26:32 71° E 20:30:13 11° SSE
Cosmos 1844 Rocket 2.7 20:21:06 10° NNW 20:26:48 90° ENE 20:32:26 10° SSE
SL-8 Rocket 4.4 20:23:18 10° SSE 20:29:12 43° E 20:35:05 10° NNE
Envisat 3.3 20:24:22 10° S 20:29:24 69° WSW 20:34:29 10° NNW
Cosmos 2251 Rocket 3.6 20:28:16 10° NNW 20:33:40 80° WSW 20:38:59 10° SSE
Cosmos 1844 3.7 20:28:11 10° NNW 20:33:54 79° ENE 20:38:39 16° SSE
Cosmos 2219 Rocket 2.8 20:28:23 10° SSW 20:33:57 61° WNW 20:39:34 10° NNE
SJ-11-01 4.5 20:32:11 19° SE 20:35:19 51° ENE 20:39:51 10° N
Cosmos 2237 Rocket 2.1 20:30:33 10° S 20:36:05 65° ESE 20:41:39 10° NNE
Genesis I 4.1 20:35:01 10° N 20:38:47 35° NE 20:40:01 28° E
Cosmos 2056 Rocket 4.2 20:37:10 15° SSE 20:41:00 33° E 20:45:48 10° NE
Cosmos 1633 Rocket 3.1 20:38:34 10° N 20:42:55 81° W 20:46:57 12° S
Cosmos 2098 Rocket 3.8 20:47:46 32° ESE 20:48:44 35° E 20:52:31 10° NNE
Cosmos 2278 Rocket 2.7 20:44:11 10° N 20:49:35 43° ENE 20:51:44 31° ESE
Cosmos 1515 Rocket 3.5 20:45:48 10° S 20:50:14 80° E 20:54:43 10° N
NOAA 11 4.3 20:47:33 25° SE 20:50:41 58° ENE 20:56:05 10° N
Nadezhda 3 Rocket 4.4 20:46:58 10° NNW 20:53:12 65° W 20:59:29 10° S
Cosmos 2228 Rocket 3.0 20:51:18 10° S 20:55:41 88° W 21:00:06 10° N
Cosmos 1624 Rocket 4.1 20:53:53 15° S 20:57:56 51° ESE 21:02:57 10° NNE
ASTRO E2 3.5 20:57:45 10° SW 21:00:58 35° S 21:00:58 35° S
Cosmos 1825 2.3 21:01:11 10° N 21:04:39 53° ENE 21:04:39 53° ENE
Sakura Rocket 3.5 21:04:32 10° WSW 21:08:34 39° S 21:08:34 39° S
ATLAS CENTAUR R/B 3.9 21:08:03 10° W 21:10:48 20° NW 21:13:37 10° N
OAO 2 Rocket 3.5 21:06:33 10° W 21:11:38 57° SSW 21:12:37 48° SSE
Spot 2 Rocket 3.6 21:09:25 27° S 21:12:14 73° WSW 21:17:20 10° NNW
Resurs 01 Rocket 2.9 21:17:09 18° SSW 21:20:02 38° W 21:24:11 10° NNW
ATLAS 2AS CENTAUR R/B 2.9 21:16:22 10° NNW 21:24:09 79° WSW 21:27:11 39° SSE
GEOS 3 Rocket 3.7 21:20:05 10° NE 21:24:42 54° E 21:24:42 54° E
Cosmos 1470 Rocket 4.3 21:21:53 10° NNW 21:26:09 49° W 21:27:42 33° SW
SL-16 R/B 2.0 21:24:49 47° S 21:26:20 68° ESE 21:31:57 10° NNE
ARGOS 3.1 21:29:47 63° E 21:30:07 64° ENE 21:35:25 10° N
OAO 3 Copernicus 4.2 21:25:46 10° WSW 21:30:35 74° SSW 21:30:35 74° SSW
Cosmos 1869 3.9 21:30:46 48° WSW 21:31:22 53° W 21:35:19 10° N
MetOp-B 4.2 21:32:28 59° ENE 21:32:30 59° ENE 21:37:46 10° N
SL-08 RB Rocket 4.5 21:34:41 41° NNE 21:34:41 41° NNE 21:37:57 10° N
Cosmos 1727 Rocket 3.8 21:36:03 10° N 21:42:15 80° E 21:42:59 69° SE
ATLAS 2A CENTAUR R/B 3.8 21:24:58 10° WSW 21:42:49 49° S 21:44:51 45° SE
Meteor 2-10 Rocket 4.0 21:42:55 34° SSW 21:45:27 66° W 21:51:14 10° N
Cosmos 1408 4.4 21:44:05 10° NNW 21:47:03 28° W 21:47:03 28° W
ERS-1 Rocket 3.3 21:50:08 55° NNE 21:50:08 55° NNE 21:54:12 10° N
USA 81 4.1 21:49:01 10° N 21:53:44 72° N 21:53:44 72° N
NOSS 3-4 (A) 4.0 21:47:34 10° NNW 21:54:36 57° NE 21:55:20 55° ENE
NOSS 3-4 (C) 4.0 21:47:41 10° NNW 21:54:42 56° NE 21:55:26 54° ENE
Cosmos 407 Rocket 3.8 21:50:36 10° NNW 21:54:44 57° N 21:54:44 57° N
H-2A R/B 2.3 21:57:48 63° NNW 21:57:48 63° NNW 22:01:57 10° NNW
Cosmos 2344 3.4 21:51:13 10° SSW 21:58:56 80° ESE 22:06:55 10° NNE
Cosmos 2297 4.0 21:56:31 10° NNW 22:01:18 59° NNE 22:01:18 59° NNE
USA 267 3.1 21:56:56 10° NE 22:03:29 87° SE 22:10:02 10° SW
Cosmos 2369 Rocket 4.4 22:05:13 10° NNE 22:07:06 14° NE 22:07:06 14° NE
Terra 4.0 22:27:10 20° NNE 22:27:10 20° NNE 22:28:44 10° N
CZ-4C R/B 4.3 22:29:46 17° NNE 22:29:46 17° NNE 22:31:07 10° NNE
Cosmos 2278 Rocket 4.1 22:29:08 10° NW 22:33:16 21° W 22:33:37 21° WSW
ATLAS 5 CENTAUR R/B 4.3 22:32:17 10° N 22:35:41 19° NE 22:35:41 19° NE
Centaur D-1A AC-31 4.1 22:43:54 10° WSW 22:46:00 17° WSW 22:46:00 17° WSW
Lacrosse 5 4.4 22:47:11 10° N 22:48:54 15° NNE 22:48:54 15° NNE
BREEZE-M DEB (TANK) 4.5 23:01:57 10° NW 23:19:23 64° N 23:19:23 64° N
Cosmos 1943 Rocket 4.3 23:15:50 10° N 23:17:39 20° N 23:17:39 20° N
Cosmos 2369 Rocket 4.5 23:47:16 10° NNW 23:48:53 20° NNW 23:48:53 20° NNW
